Погода в Мартюше

Россия / Свердловская область     56°24′01″N   61°53′13″E
темп.,
°C
ветер,
м/с
пор.,
м/с
влажн.,
%
обл.,
%
осадки,
мм/ч
давл.,
гПа
погр.,
м
25 мая, ср
ср2523:00+12вюв3695100 0.7 1009115
02:00+12в51295100 1.3 1008280
05:00+11юв3693100 1.3 1007111
08:00+15ююв41081100 0.0 1007310
11:00+19ююв61061100 0.0 1007676
14:00+22ю61557100 0.0 10071713
17:00+20ю5126394 0.1 1007828
20:00+16зюз5983100 1.1 1008349
26 мая, чт
чт2623:00+13зсз359512 4.3 1008206
02:00+9з369695 0.0 1010173
05:00+9зсз2494100 0.0 101197
08:00+12зсз478251 0.0 1012432
11:00+14зсз566777 0.0 10131194
14:00+13ссз5564100 0.0 1013969
17:00+12ссв5875100 1.5 1012857
20:00+10ссв1485100 0.4 1011189
27 мая, пт
пт2723:00+10сз51274100 0.4 1010375
02:00+8ссз51282100 1.5 1010415
05:00+7сз51184100 1.6 1010350
08:00+9сз611700 0.0 1010826
11:00+13зсз695216 0.0 10111772
14:00+16зсз584634 0.0 10122125
17:00+17з464410 0.0 10122128
20:00+14зюз346716 0.0 101366
28 мая, сб
сб2823:00+10зсз226757 0.0 101414
02:00+8юз22735 0.0 101515
05:00+8ю11775 0.0 101510
08:00+13ююв34675 0.0 1015303
11:00+17ю45625 0.0 1014907
14:00+19ю345018 0.0 10151902
17:00+17з2268100 0.1 101571
20:00+16ююз11735 0.1 101613
29 мая, вс
вс2923:00+13ююз22850 0.1 101811
02:00+11юз22870 0.0 101919
05:00+11з22880 0.0 101926
08:00+16з34760 0.0 1020344
11:00+19зюз3458100 0.0 10201264
14:00+22зюз3550100 0.0 10201769
17:00+23зюз3550100 0.0 10191846
20:00+19юз336990 0.0 102034